This is the latest recevied weather packets stored in our database for station/object DM2KB-13. If no packets are shown the sender has not sent any weather packets the latest 10 day(s).
| Time | Temp. | Humidity | Pressure | Rain* | Wind** | Luminosity | Snow |
|---|---|---|---|---|---|---|---|
| 1777813343 | 20.56° C | 53% | 1010.1 hPa | 0 mm | - | 230 W/m² | - |
| 1777813043 | 20.56° C | 53% | 1010.1 hPa | 0 mm | - | 236 W/m² | - |
| 1777812743 | 20.56° C | 52% | 1010.1 hPa | 0 mm | - | 223 W/m² | - |
| 1777812443 | 20.56° C | 52% | 1010.1 hPa | 0 mm | - | 221 W/m² | - |
| 1777812142 | 20.56° C | 51% | 1010.1 hPa | 0 mm | - | 237 W/m² | - |
| 1777811842 | 21.11° C | 52% | 1010.1 hPa | 0 mm | - | 241 W/m² | - |
| 1777811542 | 21.11° C | 53% | 1010.1 hPa | 0 mm | - | 237 W/m² | - |
| 1777811241 | 21.11° C | 52% | 1010.1 hPa | 0 mm | - | 278 W/m² | - |
| 1777810941 | 21.11° C | 52% | 1010.1 hPa | 0 mm | - | 262 W/m² | - |
| 1777810641 | 21.11° C | 50% | 1010 hPa | 0 mm | - | 294 W/m² | - |
| 1777810341 | 21.11° C | 53% | 1010 hPa | 0 mm | - | 302 W/m² | - |
| 1777810040 | 21.11° C | 51% | 1010 hPa | 0 mm | - | 290 W/m² | - |
| 1777809740 | 21.67° C | 50% | 1010.1 hPa | 0 mm | - | 272 W/m² | - |
| 1777809440 | 21.67° C | 49% | 1010 hPa | 0 mm | - | 207 W/m² | - |
| 1777809139 | 22.22° C | 47% | 1010.1 hPa | 0 mm | - | 230 W/m² | - |
| 1777808839 | 22.22° C | 48% | 1010 hPa | 0 mm | - | 343 W/m² | - |
| 1777808539 | 22.22° C | 48% | 1010 hPa | 0 mm | - | 401 W/m² | - |
| 1777808239 | 22.22° C | 49% | 1010 hPa | 0 mm | - | 575 W/m² | - |
| 1777807938 | 21.67° C | 49% | 1010 hPa | 0 mm | - | 923 W/m² | - |
| 1777807638 | 21.67° C | 50% | 1010 hPa | 0 mm | - | 737 W/m² | - |
| 1777807338 | 21.67° C | 49% | 1010 hPa | 0 mm | - | 466 W/m² | - |
| 1777807037 | 21.67° C | 48% | 1009.9 hPa | 0 mm | - | 367 W/m² | - |
| 1777806737 | 21.67° C | 50% | 1010 hPa | 0 mm | - | 552 W/m² | - |
| 1777806437 | 21.67° C | 49% | 1009.9 hPa | 0 mm | - | 446 W/m² | - |
| 1777806137 | 22.22° C | 49% | 1009.9 hPa | 0 mm | - | 399 W/m² | - |
* Rain latest hour (hover to see other rain measurements)
** Current wind speed in m/s (hover to see current wind gust speed)